When you browse on this site, cookies collect data to enhance your experience and personalize the content and advertising you see.
Visit our Privacy Policy to learn more. By continuing to use the site, you agree to this use of cookies and data.
  • In Switzerland
  • List of Countries
  • For 7 days
  • Water Temperature
  • Weather Map
  • Weather Widgets
  • user-avatar
    Login

    Hourly Weather La Massana

    Today, 31 May, Sunday

    Time Temperature Precipitation Wind Pressure Humidity
    00:00 +8°C° 0 mm 1 mps 609 mmHg 93%
    01:00 +8°C° 0 mm 1 mps 609 mmHg 92%
    02:00 +8°C° 0 mm 1 mps 609 mmHg 91%
    03:00 +8°C° 0 mm 1 mps 609 mmHg 90%
    04:00 +8°C° 0 mm 1 mps 609 mmHg 90%
    05:00 +9°C° 0 mm 1 mps 609 mmHg 89%
    06:00 +10°C° 0 mm 1 mps 609 mmHg 88%
    07:00 +12°C° 0 mm 1 mps 610 mmHg 77%
    08:00 +14°C° 0 mm 1 mps 611 mmHg 66%
    09:00 +16°C° 0 mm 1 mps 612 mmHg 55%
    10:00 +18°C° 0 mm 1 mps 612 mmHg 52%
    11:00 +18°C° 0 mm 2 mps 613 mmHg 49%
    12:00 +18°C° 0 mm 2 mps 613 mmHg 46%
    13:00 +18°C° 0.7 mm 2 mps 612 mmHg 54%
    14:00 +17°C° 0.7 mm 2 mps 612 mmHg 63%
    15:00 +16°C° 0.7 mm 1 mps 611 mmHg 71%
    16:00 +15°C° 1.1 mm 1 mps 611 mmHg 77%
    17:00 +14°C° 1.1 mm 1 mps 610 mmHg 82%
    18:00 +13°C° 1.1 mm 1 mps 610 mmHg 87%
    19:00 +12°C° 0.8 mm 1 mps 610 mmHg 89%
    20:00 +11°C° 0.8 mm 1 mps 610 mmHg 91%
    21:00 +10°C° 0.8 mm 1 mps 610 mmHg 92%
    22:00 +10°C° 0.3 mm 1 mps 610 mmHg 93%
    23:00 +10°C° 0.3 mm 1 mps 610 mmHg 93%

    Tomorrow, 1 June, Monday

    Time Temperature Precipitation Wind Pressure Humidity
    00:00 +10°C° 0.3 mm 1 mps 610 mmHg 93%
    01:00 +10°C° 0.2 mm 1 mps 610 mmHg 92%
    02:00 +10°C° 0.2 mm 1 mps 610 mmHg 92%
    03:00 +10°C° 0.2 mm 1 mps 609 mmHg 91%
    04:00 +10°C° 0.1 mm 1 mps 610 mmHg 89%
    05:00 +9°C° 0.1 mm 0 mps 610 mmHg 88%
    06:00 +10°C° 0.1 mm 0 mps 610 mmHg 86%
    07:00 +12°C° 0.3 mm 1 mps 611 mmHg 81%
    08:00 +13°C° 0.3 mm 1 mps 612 mmHg 77%
    09:00 +15°C° 0.3 mm 1 mps 613 mmHg 72%
    10:00 +14°C° 1.2 mm 1 mps 612 mmHg 77%
    11:00 +13°C° 1.2 mm 2 mps 612 mmHg 81%
    12:00 +13°C° 1.2 mm 2 mps 612 mmHg 86%
    13:00 +13°C° 2.2 mm 2 mps 612 mmHg 87%
    14:00 +12°C° 2.2 mm 1 mps 611 mmHg 87%
    15:00 +12°C° 2.2 mm 1 mps 611 mmHg 88%
    16:00 +12°C° 1.3 mm 1 mps 611 mmHg 90%
    17:00 +12°C° 1.3 mm 1 mps 611 mmHg 91%
    18:00 +11°C° 1.3 mm 1 mps 611 mmHg 93%
    19:00 +11°C° 0.3 mm 1 mps 611 mmHg 94%
    20:00 +10°C° 0.3 mm 1 mps 611 mmHg 95%
    21:00 +10°C° 0.3 mm 1 mps 611 mmHg 96%
    22:00 +9°C° 0 mm 1 mps 611 mmHg 96%
    23:00 +9°C° 0 mm 1 mps 610 mmHg 95%

    Day after tomorrow, 2 June, Tuesday

    Time Temperature Precipitation Wind Pressure Humidity
    00:00 +9°C° 0 mm 1 mps 610 mmHg 95%
    01:00 +9°C° 0.1 mm 1 mps 610 mmHg 95%
    02:00 +9°C° 0.1 mm 1 mps 610 mmHg 95%
    03:00 +9°C° 0.1 mm 1 mps 610 mmHg 95%
    04:00 +10°C° 0.1 mm 1 mps 610 mmHg 93%
    05:00 +9°C° 0.1 mm 0 mps 610 mmHg 91%
    06:00 +10°C° 0.1 mm 0 mps 611 mmHg 88%
    07:00 +12°C° 0.4 mm 1 mps 611 mmHg 85%
    08:00 +14°C° 0.4 mm 1 mps 612 mmHg 81%
    09:00 +15°C° 0.4 mm 1 mps 612 mmHg 77%
    10:00 +15°C° 1 mm 1 mps 612 mmHg 77%
    11:00 +16°C° 1 mm 1 mps 612 mmHg 77%
    12:00 +16°C° 1 mm 1 mps 612 mmHg 77%
    13:00 +16°C° 1.3 mm 1 mps 612 mmHg 78%
    14:00 +16°C° 1.3 mm 1 mps 612 mmHg 78%
    15:00 +15°C° 1.3 mm 1 mps 611 mmHg 79%
    16:00 +15°C° 0.9 mm 1 mps 611 mmHg 82%
    17:00 +13°C° 0.9 mm 0 mps 610 mmHg 85%
    18:00 +12°C° 0.9 mm 0 mps 610 mmHg 88%
    19:00 +12°C° 0.3 mm 0 mps 610 mmHg 89%
    20:00 +11°C° 0.3 mm 0 mps 609 mmHg 90%
    21:00 +10°C° 0.3 mm 0 mps 609 mmHg 92%
    22:00 +10°C° 0 mm 1 mps 609 mmHg 91%
    23:00 +10°C° 0 mm 1 mps 608 mmHg 90%

    3 June, Wednesday

    Time Temperature Precipitation Wind Pressure Humidity
    00:00 +10°C° 0 mm 1 mps 608 mmHg 90%
    01:00 +9°C° 0.1 mm 1 mps 608 mmHg 91%
    02:00 +9°C° 0.1 mm 1 mps 607 mmHg 91%
    03:00 +9°C° 0.1 mm 1 mps 607 mmHg 92%
    04:00 +10°C° 0.1 mm 1 mps 607 mmHg 90%
    05:00 +10°C° 0.1 mm 1 mps 607 mmHg 89%
    06:00 +11°C° 0.1 mm 1 mps 608 mmHg 87%
    07:00 +13°C° 0.5 mm 1 mps 608 mmHg 82%
    08:00 +14°C° 0.5 mm 1 mps 609 mmHg 77%
    09:00 +15°C° 0.5 mm 2 mps 609 mmHg 72%
    10:00 +16°C° 1 mm 2 mps 609 mmHg 71%
    11:00 +16°C° 1 mm 2 mps 609 mmHg 71%
    12:00 +16°C° 1 mm 2 mps 609 mmHg 70%
    13:00 +17°C° 0.5 mm 2 mps 609 mmHg 66%
    14:00 +17°C° 0.5 mm 2 mps 608 mmHg 63%
    15:00 +17°C° 0.5 mm 2 mps 608 mmHg 60%
    16:00 +16°C° 0.2 mm 2 mps 608 mmHg 65%
    17:00 +16°C° 0.2 mm 2 mps 607 mmHg 70%
    18:00 +15°C° 0.2 mm 1 mps 607 mmHg 75%
    19:00 +13°C° 0.2 mm 1 mps 607 mmHg 80%
    20:00 +12°C° 0.2 mm 1 mps 607 mmHg 84%
    21:00 +10°C° 0.2 mm 1 mps 606 mmHg 89%
    22:00 +10°C° 0.1 mm 1 mps 606 mmHg 89%
    23:00 +10°C° 0.1 mm 1 mps 606 mmHg 90%

    4 June, Thursday

    Time Temperature Precipitation Wind Pressure Humidity
    00:00 +10°C° 0.1 mm 1 mps 606 mmHg 90%
    01:00 +10°C° 0 mm 1 mps 606 mmHg 89%
    02:00 +10°C° 0 mm 1 mps 606 mmHg 88%
    03:00 +9°C° 0 mm 1 mps 605 mmHg 87%
    04:00 +10°C° 0 mm 1 mps 606 mmHg 85%
    05:00 +11°C° 0 mm 1 mps 606 mmHg 83%
    06:00 +12°C° 0 mm 1 mps 607 mmHg 81%
    07:00 +14°C° 0 mm 2 mps 608 mmHg 72%
    08:00 +16°C° 0 mm 2 mps 608 mmHg 63%
    09:00 +17°C° 0 mm 2 mps 609 mmHg 54%
    10:00 +18°C° 0 mm 3 mps 609 mmHg 52%
    11:00 +19°C° 0 mm 3 mps 610 mmHg 50%
    12:00 +19°C° 0 mm 3 mps 610 mmHg 48%
    13:00 +19°C° 0.2 mm 3 mps 609 mmHg 50%
    14:00 +19°C° 0.2 mm 3 mps 609 mmHg 52%
    15:00 +18°C° 0.2 mm 3 mps 609 mmHg 54%
    16:00 +18°C° 0.2 mm 2 mps 608 mmHg 60%
    17:00 +17°C° 0.2 mm 2 mps 608 mmHg 65%
    18:00 +16°C° 0.2 mm 1 mps 608 mmHg 70%
    19:00 +15°C° 0.3 mm 1 mps 607 mmHg 75%
    20:00 +13°C° 0.3 mm 1 mps 607 mmHg 80%
    21:00 +12°C° 0.3 mm 1 mps 607 mmHg 84%
    22:00 +11°C° 0.7 mm 1 mps 607 mmHg 86%
    23:00 +11°C° 0.7 mm 1 mps 606 mmHg 87%

    5 June, Friday

    Time Temperature Precipitation Wind Pressure Humidity
    00:00 +10°C° 0.7 mm 2 mps 606 mmHg 89%
    01:00 +11°C° 0 mm 1 mps 606 mmHg 87%
    02:00 +10°C° 0 mm 1 mps 606 mmHg 85%
    03:00 +10°C° 0 mm 1 mps 606 mmHg 83%
    04:00 +11°C° 0.1 mm 1 mps 606 mmHg 83%
    05:00 +11°C° 0.1 mm 1 mps 606 mmHg 83%
    06:00 +12°C° 0.1 mm 1 mps 607 mmHg 82%
    07:00 +14°C° 0.2 mm 1 mps 608 mmHg 74%
    08:00 +16°C° 0.2 mm 2 mps 608 mmHg 66%
    09:00 +17°C° 0.2 mm 2 mps 609 mmHg 58%
    10:00 +18°C° 0.2 mm 2 mps 609 mmHg 57%
    11:00 +18°C° 0.2 mm 2 mps 609 mmHg 56%
    12:00 +19°C° 0.2 mm 3 mps 609 mmHg 55%
    13:00 +19°C° 0.4 mm 3 mps 609 mmHg 54%
    14:00 +19°C° 0.4 mm 3 mps 609 mmHg 53%
    15:00 +19°C° 0.4 mm 3 mps 609 mmHg 52%
    16:00 +18°C° 0.2 mm 2 mps 608 mmHg 57%
    17:00 +17°C° 0.2 mm 2 mps 608 mmHg 61%
    18:00 +16°C° 0.2 mm 2 mps 608 mmHg 66%
    19:00 +14°C° 0.1 mm 1 mps 607 mmHg 70%
    20:00 +13°C° 0.1 mm 1 mps 607 mmHg 73%
    21:00 +11°C° 0.1 mm 1 mps 607 mmHg 77%
    22:00 +11°C° 1.8 mm 1 mps 607 mmHg 82%
    23:00 +9°C° 1.8 mm 2 mps 607 mmHg 87%
    Show more